| time (UTC) | temp C | wind direction | speed KPH | gust KPH | rain 1hr cm | rain 24hr cm | rain mn cm | humidity % | barometer mb |
| 20260905224503 | 17 | 0 | 0.0 | 0.0 | 0.00 | 0.36 | 0.36 | 95 | 1011.1 |
| 20260905224004 | 17 | 0 | 0.0 | 0.0 | 0.00 | 0.36 | 0.36 | 95 | 1011.1 |
| 20260905223503 | 17 | 0 | 0.0 | 0.0 | 0.00 | 0.36 | 0.36 | 95 | 1011.1 |
| 20260905223003 | 17 | 0 | 0.0 | 0.0 | 0.00 | 0.36 | 0.36 | 94 | 1011.1 |
| 20260905222004 | 18 | 0 | 0.0 | 0.0 | 0.00 | 0.36 | 0.36 | 94 | 1011.0 |
| 20260905221504 | 18 | 0 | 0.0 | 0.0 | 0.00 | 0.36 | 0.36 | 94 | 1011.0 |
| 20260905221003 | 18 | 0 | 0.0 | 0.0 | 0.00 | 0.36 | 0.36 | 94 | 1010.9 |
| 20260905220503 | 18 | 149 | 0.0 | 1.6 | 0.00 | 0.36 | 0.36 | 94 | 1010.9 |
| 20260905220003 | 18 | 149 | 0.0 | 1.6 | 0.00 | 0.36 | 0.36 | 93 | 1010.8 |
| 20260905215503 | 18 | 149 | 0.0 | 1.6 | 0.00 | 0.36 | 0.36 | 94 | 1010.7 |
| 20260905215004 | 18 | 149 | 0.0 | 1.6 | 0.00 | 0.36 | 0.36 | 94 | 1010.6 |
| 20260905214504 | 18 | 150 | 0.0 | 1.6 | 0.00 | 0.36 | 0.36 | 94 | 1010.5 |
| 20260905214004 | 18 | 148 | 0.0 | 3.2 | 0.00 | 0.36 | 0.36 | 93 | 1010.5 |
| 20260905213503 | 18 | 145 | 0.0 | 3.2 | 0.00 | 0.36 | 0.36 | 94 | 1010.4 |
| 20260905213003 | 18 | 141 | 0.0 | 1.6 | 0.00 | 0.36 | 0.36 | 94 | 1010.4 |
| 20260905212004 | 18 | 112 | 0.0 | 4.8 | 0.00 | 0.36 | 0.36 | 94 | 1010.3 |
| 20260905211503 | 18 | 76 | 0.0 | 4.8 | 0.00 | 0.36 | 0.36 | 95 | 1010.3 |
| 20260905211004 | 18 | 77 | 0.0 | 4.8 | 0.00 | 0.36 | 0.36 | 94 | 1010.3 |
| 20260905210504 | 18 | 81 | 0.0 | 4.8 | 0.00 | 0.36 | 0.36 | 93 | 1010.4 |
| 20260905210004 | 18 | 148 | 0.0 | 4.8 | 0.00 | 0.36 | 0.36 | 94 | 1010.3 |
| 20260905205003 | 18 | 82 | 0.0 | 4.8 | 0.00 | 0.36 | 0.36 | 94 | 1010.4 |
| 20260905204504 | 18 | 95 | 0.0 | 4.8 | 0.00 | 0.36 | 0.36 | 94 | 1010.2 |
| 20260905204004 | 18 | 67 | 0.0 | 4.8 | 0.00 | 0.36 | 0.36 | 94 | 1010.2 |
| 20260905203504 | 17 | 95 | 0.0 | 6.4 | 0.03 | 0.36 | 0.36 | 94 | 1010.3 |
| 20260905203003 | 18 | 140 | 0.0 | 6.4 | 0.08 | 0.36 | 0.36 | 94 | 1010.2 |
| 20260905202503 | 17 | 104 | 0.0 | 6.4 | 0.15 | 0.36 | 0.36 | 95 | 1010.2 |
| 20260905202003 | 17 | 80 | 0.0 | 3.2 | 0.30 | 0.36 | 0.36 | 95 | 1010.2 |
| 20260905201503 | 17 | 72 | 0.0 | 1.6 | 0.36 | 0.36 | 0.36 | 96 | 1010.2 |
| 20260905201003 | 17 | 72 | 0.0 | 4.8 | 0.36 | 0.36 | 0.36 | 96 | 1010.1 |
| 20260905200503 | 17 | 73 | 0.0 | 4.8 | 0.36 | 0.36 | 0.36 | 95 | 1010.1 |
| 20260905200004 | 17 | 124 | 0.0 | 3.2 | 0.36 | 0.36 | 0.36 | 95 | 1010.1 |
| 20260905195004 | 17 | 119 | 0.0 | 3.2 | 0.36 | 0.36 | 0.36 | 94 | 1010.1 |
| 20260905194503 | 17 | 185 | 0.0 | 4.8 | 0.36 | 0.36 | 0.36 | 93 | 1010.1 |
| 20260905194003 | 18 | 129 | 0.0 | 9.7 | 0.36 | 0.36 | 0.36 | 91 | 1010.0 |
| 20260905193004 | 18 | 128 | 0.0 | 4.8 | 0.28 | 0.28 | 0.28 | 86 | 1010.1 |
| 20260905192503 | 20 | 70 | 1.6 | 9.7 | 0.18 | 0.18 | 0.18 | 84 | 1010.0 |
| 20260905192003 | 20 | 77 | 3.2 | 14.5 | 0.03 | 0.03 | 0.03 | 80 | 1010.1 |
| 20260905191503 | 21 | 84 | 3.2 | 16.1 | 0.00 | 0.00 | 0.00 | 76 | 1009.9 |
| 20260905191004 | 21 | 87 | 1.6 | 16.1 | 0.00 | 0.00 | 0.00 | 74 | 1009.8 |
| 20260905190004 | 22 | 130 | 1.6 | 9.7 | 0.00 | 0.00 | 0.00 | 74 | 1009.5 |
| 20260905185503 | 22 | 140 | 1.6 | 9.7 | 0.00 | 0.00 | 0.00 | 75 | 1009.5 |
| 20260905183504 | 22 | 138 | 1.6 | 9.7 | 0.00 | 0.00 | 0.00 | 73 | 1009.3 |
| 20260905183004 | 22 | 147 | 3.2 | 11.3 | 0.00 | 0.00 | 0.00 | 73 | 1009.3 |
| 20260905182503 | 22 | 117 | 3.2 | 11.3 | 0.00 | 0.00 | 0.00 | 73 | 1009.4 |
| 20260905182003 | 22 | 75 | 1.6 | 9.7 | 0.00 | 0.00 | 0.00 | 76 | 1009.4 |
| 20260905181503 | 22 | 79 | 1.6 | 6.4 | 0.00 | 0.00 | 0.00 | 75 | 1009.3 |
| 20260905180503 | 22 | 95 | 1.6 | 8.0 | 0.00 | 0.00 | 0.00 | 76 | 1009.4 |
| 20260905180004 | 22 | 149 | 1.6 | 6.4 | 0.00 | 0.00 | 0.00 | 79 | 1009.5 |
| 20260905175503 | 21 | 106 | 1.6 | 4.8 | 0.00 | 0.00 | 0.00 | 79 | 1009.5 |
| 20260905175003 | 21 | 87 | 1.6 | 16.1 | 0.00 | 0.00 | 0.00 | 78 | 1009.5 |
| 20260905174503 | 21 | 88 | 3.2 | 16.1 | 0.00 | 0.00 | 0.00 | 78 | 1009.5 |
| 20260905174003 | 21 | 112 | 3.2 | 12.9 | 0.00 | 0.00 | 0.00 | 79 | 1009.4 |
| 20260905173503 | 21 | 135 | 4.8 | 12.9 | 0.00 | 0.00 | 0.00 | 78 | 1009.4 |
| 20260905173004 | 22 | 129 | 4.8 | 12.9 | 0.00 | 0.00 | 0.00 | 77 | 1009.5 |
| 20260905172503 | 22 | 102 | 3.2 | 11.3 | 0.00 | 0.00 | 0.00 | 76 | 1009.4 |
| 20260905172004 | 21 | 92 | 1.6 | 11.3 | 0.00 | 0.00 | 0.00 | 79 | 1009.4 |
| 20260905171503 | 21 | 61 | 1.6 | 4.8 | 0.00 | 0.00 | 0.00 | 76 | 1009.4 |
| 20260905171004 | 21 | 74 | 3.2 | 11.3 | 0.00 | 0.00 | 0.00 | 75 | 1009.3 |
| 20260905170503 | 21 | 86 | 3.2 | 11.3 | 0.00 | 0.00 | 0.00 | 74 | 1009.4 |
| 20260905170003 | 21 | 86 | 3.2 | 9.7 | 0.00 | 0.00 | 0.00 | 76 | 1009.4 |
| 20260905165503 | 21 | 48 | 3.2 | 9.7 | 0.00 | 0.00 | 0.00 | 75 | 1009.4 |
| 20260905165004 | 21 | 61 | 3.2 | 11.3 | 0.00 | 0.00 | 0.00 | 75 | 1009.5 |
| 20260905164504 | 21 | 83 | 3.2 | 12.9 | 0.00 | 0.00 | 0.00 | 77 | 1009.5 |
| 20260905164004 | 21 | 94 | 3.2 | 12.9 | 0.00 | 0.00 | 0.00 | 75 | 1009.5 |
| 20260905163503 | 21 | 113 | 3.2 | 11.3 | 0.00 | 0.00 | 0.00 | 76 | 1009.4 |
| 20260905163003 | 21 | 107 | 3.2 | 14.5 | 0.00 | 0.00 | 0.00 | 74 | 1009.4 |
| 20260905162503 | 21 | 95 | 3.2 | 14.5 | 0.00 | 0.00 | 0.00 | 74 | 1009.4 |
| 20260905162004 | 21 | 99 | 1.6 | 11.3 | 0.00 | 0.00 | 0.00 | 75 | 1009.3 |
| 20260905161503 | 21 | 111 | 1.6 | 11.3 | 0.00 | 0.00 | 0.00 | 75 | 1009.4 |
| 20260905161004 | 21 | 98 | 1.6 | 6.4 | 0.00 | 0.00 | 0.00 | 76 | 1009.4 |
| 20260905160503 | 21 | 75 | 1.6 | 6.4 | 0.00 | 0.00 | 0.00 | 75 | 1009.3 |
| 20260905160004 | 21 | 73 | 1.6 | 6.4 | 0.00 | 0.00 | 0.00 | 75 | 1009.4 |
| 20260905155503 | 21 | 55 | 1.6 | 4.8 | 0.00 | 0.00 | 0.00 | 76 | 1009.5 |
| 20260905155003 | 21 | 319 | 1.6 | 9.7 | 0.00 | 0.00 | 0.00 | 74 | 1009.4 |
| 20260905154503 | 21 | 79 | 1.6 | 11.3 | 0.00 | 0.00 | 0.00 | 74 | 1009.4 |
| 20260905154004 | 21 | 94 | 3.2 | 11.3 | 0.00 | 0.00 | 0.00 | 76 | 1009.3 |
| 20260905153504 | 21 | 106 | 1.6 | 9.7 | 0.00 | 0.00 | 0.00 | 76 | 1009.3 |
| 20260905153004 | 21 | 95 | 1.6 | 9.7 | 0.00 | 0.00 | 0.00 | 75 | 1009.5 |
| 20260905152503 | 21 | 80 | 1.6 | 6.4 | 0.00 | 0.00 | 0.00 | 75 | 1009.5 |
| 20260905152003 | 21 | 90 | 1.6 | 6.4 | 0.00 | 0.00 | 0.00 | 76 | 1009.5 |
| 20260905151503 | 21 | 64 | 1.6 | 6.4 | 0.00 | 0.00 | 0.00 | 77 | 1009.5 |
| 20260905151004 | 21 | 50 | 1.6 | 6.4 | 0.00 | 0.00 | 0.00 | 77 | 1009.5 |
| 20260905150004 | 21 | 90 | 0.0 | 4.8 | 0.00 | 0.00 | 0.00 | 77 | 1009.5 |
| 20260905145503 | 20 | 86 | 0.0 | 3.2 | 0.00 | 0.00 | 0.00 | 79 | 1009.5 |
| 20260905145003 | 20 | 78 | 1.6 | 6.4 | 0.00 | 0.00 | 0.00 | 79 | 1009.5 |
| 20260905144503 | 20 | 83 | 1.6 | 6.4 | 0.00 | 0.00 | 0.00 | 78 | 1009.4 |
| 20260905144004 | 20 | 104 | 1.6 | 6.4 | 0.00 | 0.00 | 0.00 | 79 | 1009.4 |
| 20260905143504 | 20 | 111 | 0.0 | 4.8 | 0.00 | 0.00 | 0.00 | 80 | 1009.4 |
| 20260905142503 | 20 | 117 | 1.6 | 6.4 | 0.00 | 0.00 | 0.00 | 80 | 1009.5 |
| 20260905142003 | 20 | 104 | 1.6 | 8.0 | 0.00 | 0.00 | 0.00 | 80 | 1009.5 |
| 20260905141503 | 20 | 88 | 1.6 | 8.0 | 0.00 | 0.00 | 0.00 | 79 | 1009.4 |
| 20260905141003 | 20 | 53 | 1.6 | 8.0 | 0.00 | 0.00 | 0.00 | 80 | 1009.4 |
| 20260905140503 | 21 | 38 | 0.0 | 6.4 | 0.00 | 0.00 | 0.00 | 78 | 1009.3 |
| 20260905135004 | 21 | 49 | 1.6 | 6.4 | 0.00 | 0.00 | 0.00 | 78 | 1009.2 |
| 20260905134503 | 21 | 102 | 1.6 | 9.7 | 0.00 | 0.00 | 0.00 | 77 | 1009.1 |
| 20260905133503 | 21 | 92 | 1.6 | 8.0 | 0.00 | 0.00 | 0.00 | 80 | 1009.1 |
| 20260905133004 | 20 | 98 | 1.6 | 8.0 | 0.00 | 0.00 | 0.00 | 80 | 1009.0 |
| 20260905132503 | 20 | 288 | 1.6 | 8.0 | 0.00 | 0.00 | 0.00 | 82 | 1008.9 |
| 20260905132004 | 20 | 298 | 1.6 | 8.0 | 0.00 | 0.00 | 0.00 | 85 | 1008.8 |
| 20260905131504 | 19 | 322 | 0.0 | 3.2 | 0.00 | 0.00 | 0.00 | 87 | 1008.8 |
| 20260905131003 | 18 | 326 | 0.0 | 3.2 | 0.00 | 0.00 | 0.00 | 86 | 1008.7 |
| 20260905130503 | 18 | 13 | 0.0 | 1.6 | 0.00 | 0.00 | 0.00 | 90 | 1008.9 |
| 20260905130004 | 18 | 357 | 0.0 | 4.8 | 0.00 | 0.00 | 0.00 | 87 | 1008.9 |
| 20260905125504 | 18 | 5 | 0.0 | 4.8 | 0.00 | 0.00 | 0.00 | 89 | 1008.9 |
| 20260905124503 | 18 | 138 | 0.0 | 3.2 | 0.00 | 0.00 | 0.00 | 89 | 1008.9 |
| 20260905124003 | 18 | 127 | 0.0 | 6.4 | 0.00 | 0.00 | 0.00 | 91 | 1008.8 |
| 20260905123503 | 18 | 104 | 0.0 | 6.4 | 0.00 | 0.00 | 0.00 | 91 | 1008.8 |
| 20260905123003 | 17 | 55 | 0.0 | 3.2 | 0.00 | 0.00 | 0.00 | 92 | 1008.7 |
| 20260905122503 | 17 | 318 | 0.0 | 1.6 | 0.00 | 0.00 | 0.00 | 93 | 1008.6 |
| 20260905121504 | 17 | 318 | 0.0 | 3.2 | 0.00 | 0.00 | 0.00 | 95 | 1008.5 |
| 20260905121004 | 17 | 318 | 0.0 | 3.2 | 0.00 | 0.00 | 0.00 | 96 | 1008.4 |
| 20260905120503 | 16 | 0 | 0.0 | 0.0 | 0.00 | 0.00 | 0.00 | 97 | 1008.4 |
| 20260905120003 | 16 | 318 | 0.0 | 1.6 | 0.00 | 0.00 | 0.00 | 97 | 1008.4 |
| 20260905115503 | 16 | 318 | 0.0 | 1.6 | 0.00 | 0.00 | 0.00 | 98 | 1008.4 |
| 20260905115004 | 16 | 0 | 0.0 | 0.0 | 0.00 | 0.00 | 0.00 | 98 | 1008.4 |
| 20260905114504 | 16 | 0 | 0.0 | 0.0 | 0.00 | 0.00 | 0.00 | 98 | 1008.3 |
| 20260905114004 | 16 | 0 | 0.0 | 0.0 | 0.00 | 0.00 | 0.00 | 98 | 1008.3 |
| 20260905113503 | 16 | 0 | 0.0 | 0.0 | 0.00 | 0.00 | 0.00 | 98 | 1008.2 |
| 20260905113004 | 16 | 0 | 0.0 | 0.0 | 0.00 | 0.00 | 0.00 | 98 | 1008.2 |
| 20260905112503 | 16 | 0 | 0.0 | 0.0 | 0.00 | 0.00 | 0.00 | 98 | 1008.2 |
| 20260905112003 | 15 | 0 | 0.0 | 0.0 | 0.00 | 0.00 | 0.00 | 98 | 1008.1 |
| 20260905111503 | 15 | 0 | 0.0 | 0.0 | 0.00 | 0.00 | 0.00 | 98 | 1008.1 |
| 20260905111003 | 15 | 0 | 0.0 | 0.0 | 0.00 | 0.00 | 0.00 | 98 | 1008.1 |
| 20260905110503 | 15 | 0 | 0.0 | 0.0 | 0.00 | 0.00 | 0.00 | 98 | 1008.0 |
| 20260905110004 | 15 | 0 | 0.0 | 0.0 | 0.00 | 0.00 | 0.00 | 97 | 1008.0 |
| 20260905105504 | 15 | 0 | 0.0 | 0.0 | 0.00 | 0.00 | 0.00 | 97 | 1007.9 |
| 20260905104504 | 15 | 0 | 0.0 | 0.0 | 0.00 | 0.00 | 0.00 | 98 | 1007.8 |
| 20260905104004 | 15 | 0 | 0.0 | 0.0 | 0.00 | 0.00 | 0.00 | 97 | 1007.8 |
| 20260905103503 | 15 | 0 | 0.0 | 0.0 | 0.00 | 0.00 | 0.00 | 97 | 1007.8 |
| 20260905102004 | 15 | 0 | 0.0 | 0.0 | 0.00 | 0.00 | 0.00 | 97 | 1007.7 |
| 20260905101504 | 15 | 0 | 0.0 | 0.0 | 0.00 | 0.00 | 0.00 | 96 | 1007.6 |
| 20260905101003 | 15 | 0 | 0.0 | 0.0 | 0.00 | 0.00 | 0.00 | 96 | 1007.5 |
| 20260905100503 | 15 | 0 | 0.0 | 0.0 | 0.00 | 0.00 | 0.00 | 96 | 1007.5 |
| 20260905100004 | 15 | 0 | 0.0 | 0.0 | 0.00 | 0.00 | 0.00 | 96 | 1007.5 |
| 20260905095503 | 15 | 0 | 0.0 | 0.0 | 0.00 | 0.00 | 0.00 | 96 | 1007.5 |
| 20260905095004 | 15 | 0 | 0.0 | 0.0 | 0.00 | 0.00 | 0.00 | 96 | 1007.5 |
| 20260905094503 | 15 | 0 | 0.0 | 0.0 | 0.00 | 0.00 | 0.00 | 96 | 1007.5 |
| 20260905094003 | 15 | 0 | 0.0 | 0.0 | 0.00 | 0.00 | 0.00 | 96 | 1007.5 |
| 20260905093503 | 15 | 0 | 0.0 | 0.0 | 0.00 | 0.00 | 0.00 | 96 | 1007.4 |
| 20260905093004 | 15 | 0 | 0.0 | 0.0 | 0.00 | 0.00 | 0.00 | 96 | 1007.4 |
| 20260905092504 | 15 | 0 | 0.0 | 0.0 | 0.00 | 0.00 | 0.00 | 95 | 1007.3 |
| 20260905092003 | 15 | 0 | 0.0 | 0.0 | 0.00 | 0.00 | 0.00 | 96 | 1007.3 |
| 20260905091503 | 15 | 0 | 0.0 | 0.0 | 0.00 | 0.00 | 0.00 | 96 | 1007.2 |
| 20260905091003 | 15 | 0 | 0.0 | 0.0 | 0.00 | 0.00 | 0.00 | 96 | 1007.3 |
| 20260905090004 | 15 | 0 | 0.0 | 0.0 | 0.00 | 0.00 | 0.00 | 95 | 1007.2 |
| 20260905085504 | 15 | 0 | 0.0 | 0.0 | 0.00 | 0.00 | 0.00 | 95 | 1007.1 |
| 20260905084503 | 15 | 0 | 0.0 | 0.0 | 0.00 | 0.00 | 0.00 | 94 | 1007.1 |
| 20260905084003 | 16 | 0 | 0.0 | 0.0 | 0.00 | 0.00 | 0.00 | 94 | 1007.1 |
| 20260905083004 | 16 | 0 | 0.0 | 0.0 | 0.00 | 0.00 | 0.00 | 94 | 1007.1 |
| 20260905082503 | 16 | 0 | 0.0 | 0.0 | 0.00 | 0.00 | 0.00 | 94 | 1007.1 |
| 20260905082003 | 16 | 0 | 0.0 | 0.0 | 0.00 | 0.00 | 0.00 | 94 | 1007.2 |
| 20260905081503 | 16 | 0 | 0.0 | 0.0 | 0.00 | 0.00 | 0.00 | 93 | 1007.2 |
| 20260905081004 | 16 | 0 | 0.0 | 0.0 | 0.00 | 0.00 | 0.00 | 93 | 1007.2 |
| 20260905080504 | 16 | 0 | 0.0 | 0.0 | 0.00 | 0.00 | 0.00 | 93 | 1007.2 |
| 20260905080004 | 16 | 0 | 0.0 | 0.0 | 0.00 | 0.00 | 0.00 | 93 | 1007.1 |
| 20260905075503 | 16 | 318 | 0.0 | 3.2 | 0.00 | 0.00 | 0.00 | 93 | 1007.1 |
| 20260905075004 | 16 | 318 | 0.0 | 3.2 | 0.00 | 0.00 | 0.00 | 93 | 1007.1 |
| 20260905074504 | 16 | 0 | 0.0 | 0.0 | 0.00 | 0.00 | 0.00 | 93 | 1007.2 |
| 20260905074003 | 16 | 0 | 0.0 | 0.0 | 0.00 | 0.00 | 0.00 | 93 | 1007.2 |
| 20260905073503 | 16 | 0 | 0.0 | 0.0 | 0.00 | 0.00 | 0.00 | 93 | 1007.2 |
| 20260905073003 | 16 | 318 | 0.0 | 4.8 | 0.00 | 0.00 | 0.00 | 93 | 1007.2 |
| 20260905072503 | 16 | 318 | 0.0 | 4.8 | 0.00 | 0.00 | 0.00 | 93 | 1007.3 |
| 20260905072004 | 16 | 318 | 0.0 | 3.2 | 0.00 | 0.00 | 0.00 | 93 | 1007.3 |
| 20260905071504 | 16 | 318 | 0.0 | 1.6 | 0.00 | 0.00 | 0.00 | 93 | 1007.3 |
| 20260905071003 | 16 | 318 | 0.0 | 3.2 | 0.00 | 0.00 | 0.00 | 93 | 1007.4 |
| 20260905070503 | 16 | 318 | 0.0 | 3.2 | 0.00 | 0.00 | 0.00 | 93 | 1007.4 |
| 20260905070004 | 16 | 0 | 0.0 | 0.0 | 0.00 | 0.00 | 0.00 | 93 | 1007.4 |
| 20260905065503 | 16 | 318 | 0.0 | 3.2 | 0.00 | 0.00 | 0.00 | 93 | 1007.5 |
| 20260905065003 | 16 | 318 | 0.0 | 3.2 | 0.00 | 0.00 | 0.00 | 93 | 1007.5 |
| 20260905064503 | 16 | 0 | 0.0 | 0.0 | 0.00 | 0.00 | 0.00 | 92 | 1007.5 |
| 20260905064004 | 16 | 313 | 0.0 | 1.6 | 0.00 | 0.00 | 0.00 | 91 | 1007.4 |
| 20260905063503 | 16 | 313 | 0.0 | 1.6 | 0.00 | 0.00 | 0.00 | 92 | 1007.5 |
| 20260905063004 | 16 | 0 | 0.0 | 0.0 | 0.00 | 0.00 | 0.00 | 91 | 1007.6 |
| 20260905062504 | 16 | 0 | 0.0 | 0.0 | 0.00 | 0.00 | 0.00 | 91 | 1007.5 |
| 20260905062004 | 17 | 0 | 0.0 | 0.0 | 0.00 | 0.00 | 0.00 | 90 | 1007.5 |
| 20260905061503 | 17 | 312 | 0.0 | 1.6 | 0.00 | 0.03 | 0.00 | 90 | 1007.6 |
| 20260905061003 | 17 | 312 | 0.0 | 1.6 | 0.00 | 0.03 | 0.00 | 90 | 1007.6 |
| 20260905060503 | 17 | 0 | 0.0 | 0.0 | 0.00 | 0.03 | 0.00 | 90 | 1007.5 |
| 20260905060004 | 17 | 0 | 0.0 | 0.0 | 0.00 | 0.03 | 0.00 | 89 | 1007.6 |
| 20260905055503 | 17 | 0 | 0.0 | 0.0 | 0.00 | 0.03 | 0.00 | 89 | 1007.7 |
| 20260905055004 | 17 | 0 | 0.0 | 0.0 | 0.00 | 0.03 | 0.00 | 87 | 1007.7 |
| 20260905054503 | 17 | 0 | 0.0 | 0.0 | 0.00 | 0.03 | 0.00 | 87 | 1007.7 |
| 20260905054004 | 17 | 0 | 0.0 | 0.0 | 0.00 | 0.03 | 0.00 | 87 | 1007.7 |
| 20260905053503 | 17 | 0 | 0.0 | 0.0 | 0.00 | 0.03 | 0.00 | 86 | 1007.7 |
| 20260905053004 | 17 | 0 | 0.0 | 0.0 | 0.00 | 0.03 | 0.00 | 86 | 1007.6 |
| 20260905052503 | 18 | 0 | 0.0 | 0.0 | 0.00 | 0.03 | 0.00 | 86 | 1007.7 |
| 20260905052003 | 18 | 0 | 0.0 | 0.0 | 0.00 | 0.03 | 0.00 | 86 | 1007.7 |
| 20260905051504 | 18 | 313 | 0.0 | 1.6 | 0.00 | 0.03 | 0.00 | 85 | 1007.6 |
| 20260905051003 | 18 | 313 | 0.0 | 3.2 | 0.00 | 0.03 | 0.00 | 85 | 1007.6 |
| 20260905050503 | 18 | 314 | 0.0 | 3.2 | 0.00 | 0.03 | 0.00 | 85 | 1007.7 |
| 20260905045504 | 18 | 321 | 0.0 | 6.4 | 0.00 | 0.03 | 0.00 | 85 | 1007.6 |
| 20260905045004 | 18 | 0 | 0.0 | 0.0 | 0.00 | 0.03 | 0.00 | 85 | 1007.5 |
| 20260905044503 | 18 | 0 | 0.0 | 0.0 | 0.00 | 0.03 | 0.00 | 86 | 1007.6 |
| 20260905044003 | 18 | 0 | 0.0 | 0.0 | 0.00 | 0.03 | 0.00 | 86 | 1007.5 |
| 20260905043504 | 18 | 0 | 0.0 | 0.0 | 0.00 | 0.03 | 0.00 | 86 | 1007.6 |
| 20260905043004 | 17 | 0 | 0.0 | 0.0 | 0.00 | 0.03 | 0.00 | 89 | 1007.7 |
| 20260905042503 | 17 | 0 | 0.0 | 0.0 | 0.00 | 0.03 | 0.00 | 90 | 1007.8 |
| 20260905042004 | 17 | 0 | 0.0 | 0.0 | 0.00 | 0.03 | 0.00 | 90 | 1007.7 |
| 20260905041503 | 17 | 0 | 0.0 | 0.0 | 0.00 | 0.03 | 0.00 | 90 | 1007.7 |
| 20260905041004 | 17 | 0 | 0.0 | 0.0 | 0.00 | 0.03 | 0.00 | 90 | 1007.6 |
| 20260905040004 | 18 | 0 | 0.0 | 0.0 | 0.00 | 0.03 | 0.00 | 90 | 1007.5 |
| 20260905035503 | 18 | 0 | 0.0 | 0.0 | 0.00 | 0.03 | 0.03 | 90 | 1007.5 |
| 20260905035004 | 18 | 0 | 0.0 | 0.0 | 0.00 | 0.03 | 0.03 | 90 | 1007.6 |
| 20260905034504 | 18 | 0 | 0.0 | 0.0 | 0.00 | 0.03 | 0.03 | 87 | 1007.6 |
| 20260905034004 | 18 | 0 | 0.0 | 0.0 | 0.00 | 0.03 | 0.03 | 87 | 1007.7 |
| 20260905033503 | 18 | 0 | 0.0 | 0.0 | 0.00 | 0.03 | 0.03 | 87 | 1007.7 |
| 20260905033003 | 18 | 0 | 0.0 | 0.0 | 0.00 | 0.03 | 0.03 | 89 | 1007.8 |
| 20260905032503 | 18 | 0 | 0.0 | 0.0 | 0.00 | 0.03 | 0.03 | 89 | 1007.7 |
| 20260905032004 | 18 | 0 | 0.0 | 0.0 | 0.00 | 0.03 | 0.03 | 89 | 1007.7 |
| 20260905031503 | 18 | 0 | 0.0 | 0.0 | 0.00 | 0.03 | 0.03 | 87 | 1007.7 |
| 20260905030004 | 18 | 0 | 0.0 | 0.0 | 0.00 | 0.03 | 0.03 | 89 | 1007.9 |
| 20260905025503 | 18 | 0 | 0.0 | 0.0 | 0.00 | 0.03 | 0.03 | 90 | 1007.9 |
| 20260905025003 | 18 | 0 | 0.0 | 0.0 | 0.00 | 0.03 | 0.03 | 89 | 1007.9 |
| 20260905024503 | 18 | 0 | 0.0 | 0.0 | 0.00 | 0.03 | 0.03 | 89 | 1007.9 |
| 20260905024004 | 18 | 0 | 0.0 | 0.0 | 0.00 | 0.03 | 0.03 | 89 | 1007.9 |
| 20260905023504 | 18 | 0 | 0.0 | 0.0 | 0.00 | 0.03 | 0.03 | 89 | 1007.9 |
| 20260905023004 | 18 | 0 | 0.0 | 0.0 | 0.00 | 0.03 | 0.03 | 89 | 1008.0 |
| 20260905022004 | 18 | 0 | 0.0 | 0.0 | 0.00 | 0.03 | 0.03 | 89 | 1008.1 |
| 20260905021503 | 18 | 0 | 0.0 | 0.0 | 0.00 | 0.03 | 0.03 | 89 | 1008.1 |
| 20260905021003 | 18 | 0 | 0.0 | 0.0 | 0.00 | 0.03 | 0.03 | 89 | 1008.2 |
| 20260905020503 | 18 | 0 | 0.0 | 0.0 | 0.00 | 0.03 | 0.03 | 89 | 1008.2 |
| 20260905020004 | 18 | 0 | 0.0 | 0.0 | 0.00 | 0.03 | 0.03 | 89 | 1008.2 |
| 20260905015504 | 18 | 0 | 0.0 | 0.0 | 0.00 | 0.03 | 0.03 | 89 | 1008.3 |
| 20260905014004 | 18 | 0 | 0.0 | 0.0 | 0.00 | 0.03 | 0.03 | 90 | 1008.4 |
| 20260905013503 | 18 | 0 | 0.0 | 0.0 | 0.00 | 0.03 | 0.03 | 89 | 1008.4 |
| 20260905012504 | 18 | 0 | 0.0 | 0.0 | 0.00 | 0.03 | 0.03 | 90 | 1008.3 |
| 20260905012004 | 18 | 0 | 0.0 | 0.0 | 0.00 | 0.03 | 0.03 | 89 | 1008.3 |
| 20260905011504 | 18 | 0 | 0.0 | 0.0 | 0.00 | 0.03 | 0.03 | 89 | 1008.4 |
| 20260905010503 | 18 | 0 | 0.0 | 0.0 | 0.00 | 0.03 | 0.03 | 89 | 1008.4 |
| 20260905010004 | 18 | 0 | 0.0 | 0.0 | 0.00 | 0.03 | 0.03 | 89 | 1008.3 |
| 20260905005504 | 18 | 0 | 0.0 | 0.0 | 0.00 | 0.03 | 0.03 | 89 | 1008.3 |
| 20260905005004 | 18 | 0 | 0.0 | 0.0 | 0.00 | 0.03 | 0.03 | 89 | 1008.3 |
| 20260905004503 | 18 | 0 | 0.0 | 0.0 | 0.00 | 0.03 | 0.03 | 89 | 1008.3 |
| 20260905004003 | 18 | 0 | 0.0 | 0.0 | 0.00 | 0.03 | 0.03 | 87 | 1008.2 |
| 20260905003004 | 19 | 0 | 0.0 | 0.0 | 0.00 | 0.03 | 0.03 | 87 | 1008.2 |
| 20260905002503 | 19 | 0 | 0.0 | 0.0 | 0.00 | 0.03 | 0.03 | 86 | 1008.2 |
| 20260905002004 | 19 | 0 | 0.0 | 0.0 | 0.00 | 0.03 | 0.03 | 86 | 1008.2 |
| 20260905001503 | 20 | 0 | 0.0 | 0.0 | 0.00 | 0.03 | 0.03 | 86 | 1008.2 |
| 20260905001003 | 20 | 0 | 0.0 | 0.0 | 0.00 | 0.03 | 0.03 | 85 | 1008.1 |
| 20260905000503 | 20 | 0 | 0.0 | 0.0 | 0.00 | 0.03 | 0.03 | 84 | 1008.1 |
| 20260905000004 | 20 | 0 | 0.0 | 0.0 | 0.00 | 0.03 | 0.03 | 83 | 1008.1 |
| 20260904235504 | 20 | 0 | 0.0 | 0.0 | 0.00 | 0.03 | 0.03 | 82 | 1008.0 |
| 20260904235004 | 20 | 0 | 0.0 | 0.0 | 0.00 | 0.03 | 0.03 | 82 | 1008.0 |
| 20260904234503 | 21 | 0 | 0.0 | 0.0 | 0.00 | 0.03 | 0.03 | 81 | 1007.8 |
| 20260904233503 | 21 | 0 | 0.0 | 0.0 | 0.00 | 0.03 | 0.03 | 79 | 1007.7 |
| 20260904233004 | 21 | 0 | 0.0 | 0.0 | 0.00 | 0.03 | 0.03 | 78 | 1007.6 |
| 20260904232503 | 21 | 0 | 0.0 | 0.0 | 0.00 | 0.03 | 0.03 | 77 | 1007.6 |
| 20260904232004 | 22 | 0 | 0.0 | 0.0 | 0.00 | 0.03 | 0.03 | 77 | 1007.7 |
| 20260904231503 | 22 | 0 | 0.0 | 0.0 | 0.00 | 0.03 | 0.03 | 76 | 1007.5 |
| 20260904231004 | 22 | 0 | 0.0 | 0.0 | 0.00 | 0.03 | 0.03 | 76 | 1007.5 |
| 20260904230503 | 22 | 0 | 0.0 | 0.0 | 0.00 | 0.03 | 0.03 | 76 | 1007.5 |
| 20260904225503 | 22 | 0 | 0.0 | 0.0 | 0.00 | 0.03 | 0.03 | 75 | 1007.5 |
| 20260904225003 | 23 | 0 | 0.0 | 0.0 | 0.00 | 0.03 | 0.03 | 77 | 1007.5 |